This is the latest recevied weather packets stored in our database for station/object KD4WLE. If no packets are shown the sender has not sent any weather packets the latest 10 day(s).
| Time | Temp. | Humidity | Pressure | Rain* | Wind** | Luminosity | Snow |
|---|---|---|---|---|---|---|---|
| 1777737407 | 28.33° C | 74% | 1011.7 hPa | 0 mm | - | 378 W/m² | - |
| 1777737104 | 28.89° C | 73% | 1011.9 hPa | 0 mm | - | 263 W/m² | - |
| 1777736800 | 28.89° C | 73% | 1011.9 hPa | 0 mm | - | 352 W/m² | - |
| 1777736172 | 27.78° C | 75% | 1011.8 hPa | 0 mm | - | 307 W/m² | - |
| 1777735869 | 27.78° C | 76% | 1011.9 hPa | 0 mm | - | 309 W/m² | - |
| 1777735567 | 27.78° C | 76% | 1011.9 hPa | 0 mm | - | 325 W/m² | - |
| 1777735264 | 27.22° C | 76% | 1011.8 hPa | 0 mm | - | 278 W/m² | - |
| 1777734961 | 27.22° C | 77% | 1011.9 hPa | 0 mm | - | 269 W/m² | - |
| 1777734658 | 26.67° C | 78% | 1012 hPa | 0 mm | - | 257 W/m² | - |
| 1777734355 | 26.67° C | 79% | 1012.2 hPa | 0 mm | - | 223 W/m² | - |
| 1777734051 | 26.11° C | 80% | 1012.2 hPa | 0 mm | - | 201 W/m² | - |
| 1777733748 | 26.11° C | 80% | 1012.3 hPa | 0 mm | - | 167 W/m² | - |
| 1777733445 | 26.11° C | 81% | 1012.4 hPa | 0 mm | - | 186 W/m² | - |
| 1777733141 | 26.11° C | 81% | 1012.3 hPa | 0 mm | - | 193 W/m² | - |
| 1777732838 | 25.56° C | 81% | 1012.3 hPa | 0 mm | - | 193 W/m² | - |
| 1777732534 | 25.56° C | 81% | 1012.2 hPa | 0 mm | - | 178 W/m² | - |
| 1777732232 | 25.56° C | 81% | 1012.3 hPa | 0 mm | - | 159 W/m² | - |
| 1777731928 | 25.56° C | 81% | 1012.3 hPa | 0 mm | - | 139 W/m² | - |
| 1777731620 | 25.56° C | 81% | 1012.3 hPa | 0 mm | - | 126 W/m² | - |
| 1777731317 | 25.56° C | 81% | 1012.2 hPa | 0 mm | - | 149 W/m² | - |
| 1777731015 | 25.56° C | 80% | 1012.2 hPa | 0 mm | - | 173 W/m² | - |
| 1777730714 | 25.56° C | 83% | 1012.1 hPa | 0 mm | - | 187 W/m² | - |
| 1777730409 | 25.56° C | 85% | 1011.9 hPa | 0 mm | - | 185 W/m² | - |
| 1777730105 | 25.56° C | 85% | 1012.3 hPa | 0 mm | - | 175 W/m² | - |
| 1777729802 | 25.56° C | 86% | 1011.9 hPa | 0 mm | - | 164 W/m² | - |
* Rain latest hour (hover to see other rain measurements)
** Current wind speed in m/s (hover to see current wind gust speed)